{"data":{"norad_id":69916,"epoch":"2026-09-20T00:53:35.329344Z","epoch_age_seconds":57771,"freshness":"FRESH","line1":"1 69916U 26156AZ  26263.03721446  .00001472  00000+0  15401-3 0  9994","line2":"2 69916  97.7433 162.1313 0001350 227.9556 132.1548 14.91116768 11132","mean_motion":14.91116768,"eccentricity":0.000135,"inclination_deg":97.7433,"raan_deg":162.1313,"arg_perigee_deg":227.9556,"mean_anomaly_deg":132.1548,"bstar":0.00015401,"rev_number":1113,"period_min":96.571913810039,"perigee_km":593.51078990758,"apogee_km":595.39338896173,"semimajor_km":6972.5890894347,"source":"CELESTRAK","updated_at":"2026-09-20T09:00:25.181006Z"}}